Location: Albany
(35.0000°S, 118.0000°E)
Time: 12:46:28
(UTC-04:00)

CZ-4B R/B - Visible Passes

Search period start: 25 October 2014 00:00
Search period end: 03 November 2014 23:00
Orbit: 494 x 673 km, 97.6° (Epoch: 24 October)

Date Brightness Start Highest point End Pass type
(mag) Time Alt. Az. Time Alt. Az. Time Alt. Az.
25 Oct 3.6 15:16:47 15° NE 15:19:35 49° ESE 15:23:16 10° S visible
26 Oct 3.2 15:22:45 15° NNE 15:25:39 60° ESE 15:29:26 10° S visible
27 Oct 2.8 15:28:44 15° NNE 15:31:44 74° ESE 15:35:34 10° S visible
28 Oct 2.6 15:34:41 14° NNE 15:37:48 90° WNW 15:41:41 10° SSW visible
29 Oct 2.6 15:40:39 13° N 15:43:53 74° W 15:47:46 10° SSW visible
30 Oct 2.7 15:46:36 12° N 15:49:57 60° W 15:53:49 10° SSW visible
31 Oct 2.9 15:52:33 11° N 15:56:01 49° W 15:59:51 10° SSW visible
01 Nov 6.0 14:25:51 10° E 14:27:10 12° ESE 14:28:31 10° SE visible
01 Nov 3.2 15:58:34 10° N 16:02:06 40° W 16:05:50 10° SSW visible
02 Nov 5.8 13:31:10 10° E 13:33:09 14° ESE 13:35:12 10° SE visible
02 Nov 3.4 15:04:45 10° NNW 15:08:10 34° W 15:11:48 10° SSW visible
03 Nov 5.7 13:36:41 10° ENE 13:39:08 16° ESE 13:41:39 10° SSE visible
03 Nov 3.7 15:10:57 10° NNW 15:14:15 28° W 15:17:43 10° SW visible
